Wind_Speed
46 45 43 41 41 42 41 40 42 42 42 40 39 39 39 38 37 35 34 34 34 35 36 35 34 33 33 34 34 35 36 37 39 41 42 43 43 44 45 45 44 45 47
49 49 47 45 44 45 44 41 41 44 44 43 42 41 40 38 36 35 35 34 34 36 37 36 35 35 36 36 37 38 39 40 42 44 46 47 46 47 48 47 47 49 50
49 50 50 47 46 46 45 43 41 44 46 45 44 43 41 38 35 35 35 35 35 36 37 37 37 38 39 39 40 42 43 43 45 47 48 48 48 48 49 49 51 52 55
49 51 51 49 46 46 45 43 42 44 45 45 44 43 41 37 36 36 36 35 35 35 36 38 39 41 43 43 44 45 46 47 48 49 50 50 51 51 48 48 51 54 57
50 51 51 50 47 46 45 43 43 44 45 45 43 42 40 37 36 36 36 36 36 36 37 39 41 43 44 45 46 47 48 49 51 51 51 51 53 53 53 52 54 56 58
52 51 52 52 49 47 44 43 43 44 45 43 42 41 39 37 37 37 37 38 38 38 39 40 42 44 46 47 48 48 49 51 52 52 53 54 54 55 56 58 59 60 62
53 51 52 52 51 47 43 42 42 42 43 42 41 41 39 38 38 37 38 40 40 40 41 42 44 46 47 48 48 50 51 52 52 53 54 54 55 57 60 63 65 66 67
54 52 51 52 51 48 44 42 41 41 42 41 40 40 40 39 38 38 38 39 40 41 42 42 44 45 46 48 49 51 52 52 53 53 54 56 58 61 63 65 67 69 70
53 52 51 50 50 48 45 43 41 41 41 41 40 40 40 39 38 38 38 39 40 40 41 41 42 44 45 47 50 51 52 52 53 54 57 60 62 63 65 67 70 74 75
51 51 50 49 48 48 46 44 42 41 41 41 41 40 39 38 37 37 37 38 39 39 39 40 41 43 45 48 50 51 51 52 55 58 60 62 63 64 68 72 74 75 76
47 49 49 48 47 47 46 44 42 42 42 41 40 39 39 38 36 36 37 37 38 39 40 41 42 45 47 49 50 51 52 55 58 60 62 63 66 69 72 73 74 76 77
45 48 48 46 45 45 45 43 42 42 42 41 40 39 38 37 37 37 37 38 39 40 41 42 44 46 48 49 50 53 55 58 60 62 64 67 69 71 72 74 76 77 80
44 47 46 45 43 43 43 42 42 42 42 40 39 38 37 37 37 37 37 38 38 40 41 43 45 46 48 50 53 56 58 60 63 65 67 69 70 72 74 76 78 81 85
43 45 44 43 41 41 41 41 41 42 41 39 37 37 36 36 37 38 38 38 38 39 41 43 45 47 49 52 55 58 60 63 65 67 68 70 72 74 76 78 82 87 91
40 42 42 40 39 39 39 40 41 40 38 37 36 35 35 36 37 38 38 38 38 38 41 44 46 48 52 55 58 60 62 64 66 68 69 71 73 75 79 84 88 94 99
36 38 38 37 37 37 38 38 37 36 35 34 34 34 35 37 37 37 37 37 37 40 42 44 47 51 54 57 59 62 64 66 67 69 70 72 75 79 84 89 95 100 105
31 34 35 35 35 35 34 34 33 32 32 32 32 34 35 35 35 34 34 36 38 40 43 46 50 53 56 58 61 63 65 67 68 70 72 75 79 84 89 95 100 103 102
28 29 30 30 30 30 30 29 28 28 28 30 31 32 32 31 31 32 34 36 39 42 45 48 52 55 57 60 62 64 65 67 69 71 75 80 85 91 96 100 102 97 86
25 25 26 25 25 25 25 25 25 26 27 28 28 28 28 28 30 32 34 37 41 44 47 50 53 55 58 60 62 64 65 67 70 75 80 85 90 96 100 100 94 81 67
21 23 23 23 24 24 23 23 23 23 23 24 24 24 26 28 30 33 36 40 43 45 48 51 53 56 58 60 62 64 66 69 74 79 85 90 96 99 98 89 75 60 50
17 18 19 19 18 18 18 18 19 19 19 20 22 23 25 28 32 35 39 41 44 46 49 52 54 56 58 59 62 65 70 74 79 84 89 95 98 94 84 70 56 47 42
13 13 14 14 14 14 14 14 15 16 18 19 21 24 27 31 34 37 39 41 44 47 49 52 54 56 58 61 65 70 74 79 83 89 94 95 90 78 63 52 44 40 39
9 9 10 11 11 12 13 13 14 15 17 19 23 26 29 32 35 37 39 42 45 47 49 51 53 56 60 64 68 73 78 83 88 92 92 85 72 58 47 41 38 37 36
7 8 9 9 10 10 11 12 13 15 18 21 25 28 31 33 35 37 40 43 45 47 49 51 54 58 63 67 72 76 81 87 90 88 79 65 53 44 39 37 35 33 33
8 8 8 8 9 10 11 12 14 17 21 25 28 30 31 33 36 39 41 43 45 46 49 52 56 61 66 70 75 81 86 89 87 76 61 49 42 38 35 33 32 31 31
7 7 8 10 11 12 13 15 19 23 25 28 29 30 32 35 37 39 41 42 45 48 51 55 60 65 70 75 80 86 89 85 73 58 45 38 35 32 30 29 30 30 30
Wind_Direction
248 247 247 245 244 246 247 245 245 247 249 251 254 257 259 260 261 262 259 261 262 259 257 258 261 266 272 276 280 283 285 286 288 290 292 292 293 292 292 290 287 286 286
247 247 247 246 244 245 247 246 244 245 247 250 253 257 260 262 263 262 260 261 261 259 258 260 263 268 273 277 281 283 285 286 289 291 294 294 293 293 293 290 288 288 289
247 246 246 245 244 244 247 247 243 243 246 249 252 256 259 262 262 260 259 260 261 260 259 261 266 271 275 279 282 284 285 287 289 291 292 292 292 292 291 290 290 291 292
246 244 244 244 243 243 245 246 244 244 246 248 251 254 257 258 258 258 259 260 262 262 262 264 268 273 277 280 283 285 287 287 289 291 292 291 291 290 286 285 286 288 290
244 242 241 242 241 241 242 243 243 244 245 247 250 253 255 258 258 258 259 260 262 264 265 268 272 275 279 282 284 285 287 288 291 292 291 291 291 290 288 287 287 288 289
245 240 239 239 239 239 240 240 241 244 246 247 250 254 257 259 260 260 261 262 263 265 268 271 274 277 280 282 284 286 288 290 291 291 291 292 292 291 291 290 291 291 291
244 240 237 237 237 237 237 237 240 243 246 247 249 254 257 260 262 264 264 264 264 266 269 273 276 279 282 284 285 287 289 290 291 292 292 292 292 292 293 293 294 294 294
240 238 235 234 234 234 233 233 237 241 244 246 248 253 257 261 264 265 266 265 266 268 271 275 278 281 283 285 286 288 290 291 292 293 293 293 294 295 295 295 295 295 296
235 235 233 232 231 231 230 231 234 238 242 244 247 251 256 260 263 266 267 267 268 270 273 277 280 282 284 286 288 289 291 293 294 294 295 296 297 297 297 297 297 298 298
230 229 229 229 229 228 228 229 232 235 239 241 244 250 255 260 263 266 267 268 271 273 276 279 282 284 286 288 290 292 293 294 295 296 298 298 298 298 298 299 300 300 301
224 224 224 225 225 226 226 228 231 234 237 240 243 249 255 259 263 265 267 270 273 277 280 282 284 285 287 289 292 293 294 296 297 299 299 299 299 300 301 302 302 302 302
217 218 220 221 222 224 224 226 230 233 235 238 242 248 254 258 261 264 267 271 276 280 282 283 285 287 289 292 293 294 296 298 299 300 301 301 302 303 303 304 304 303 303
212 213 215 216 218 220 222 225 228 231 233 236 241 248 254 258 262 266 270 274 279 282 283 285 287 290 291 293 294 297 299 300 301 302 303 304 304 305 305 305 305 305 305
207 208 209 211 213 215 218 221 225 228 231 236 242 249 255 261 266 270 274 278 281 283 285 287 289 291 292 295 297 299 301 302 303 304 305 306 305 305 306 306 307 307 306
201 202 203 206 208 210 213 217 222 226 231 237 244 252 259 265 269 273 276 279 282 284 286 288 290 293 295 298 300 301 302 304 305 306 306 306 306 307 308 308 308 308 307
192 193 196 199 201 206 211 216 221 227 233 241 248 255 262 267 270 273 276 279 282 285 287 290 293 295 298 300 302 303 304 305 306 306 307 307 308 309 309 309 308 309 309
177 182 187 192 198 203 208 215 222 230 237 245 252 258 263 267 269 272 276 280 283 286 289 293 296 298 300 302 303 304 305 306 307 308 309 309 309 309 309 309 310 310 311
165 173 180 188 195 201 207 215 224 233 241 248 255 260 262 265 268 273 277 281 285 289 293 296 298 300 302 303 304 305 307 308 309 310 310 310 310 310 310 311 312 312 312
161 169 177 185 193 201 210 218 227 236 243 248 252 255 260 265 270 275 280 285 289 293 296 299 300 301 302 304 306 307 308 309 310 310 310 310 311 311 312 313 314 313 312
166 174 182 190 198 205 213 220 227 233 239 245 251 257 263 269 275 281 286 290 294 296 298 300 301 302 304 306 307 308 309 310 310 310 311 312 313 313 314 315 315 314 311
161 170 178 185 192 200 207 215 223 231 239 247 255 263 271 278 284 288 291 294 296 298 299 301 302 304 306 307 309 310 311 311 312 312 313 313 314 315 316 316 315 314 312
149 158 168 176 185 194 204 216 228 239 249 259 269 277 283 287 290 292 294 296 298 300 301 303 305 307 308 310 311 311 312 312 313 314 315 315 316 317 316 316 315 315 314
153 163 173 184 194 206 218 229 242 256 268 277 283 286 289 291 293 295 297 299 300 302 304 306 308 309 310 311 312 312 313 314 315 315 316 317 317 317 318 317 317 317 317
202 201 203 211 222 234 245 257 268 276 282 286 289 291 293 294 296 298 300 302 304 305 307 309 310 311 311 312 313 313 314 315 316 317 317 317 317 318 319 319 320 321 321
226 228 234 244 254 262 267 272 279 285 289 293 295 295 296 298 300 302 304 305 307 308 309 310 311 312 313 314 315 316 316 317 317 318 317 316 318 320 322 323 325 326 327
237 241 250 260 267 271 276 282 288 293 296 297 298 299 301 302 304 305 307 308 309 310 311 312 313 315 316 317 318 317 317 318 318 318 317 318 320 323 325 327 328 330 330
Height
5734 5737 5741 5744 5746 5748 5750 5753 5755 5756 5757 5759 5760 5761 5762 5763 5764 5765 5766 5765 5765 5764 5764 5763 5762 5761 5760 5758 5757 5755 5753 5750 5747 5744 5741 5738 5735 5732 5729 5726 5722 5719 5716
5723 5726 5730 5733 5736 5739 5741 5744 5746 5748 5749 5750 5751 5753 5754 5756 5757 5758 5758 5758 5757 5757 5757 5756 5755 5754 5752 5751 5749 5747 5745 5742 5739 5735 5732 5728 5726 5722 5718 5715 5711 5708 5704
5712 5715 5718 5722 5726 5729 5732 5735 5738 5739 5740 5742 5744 5745 5747 5748 5749 5749 5750 5750 5750 5750 5750 5749 5748 5746 5745 5743 5741 5739 5736 5734 5730 5727 5724 5719 5716 5713 5709 5704 5699 5694 5690
5699 5702 5706 5710 5715 5719 5723 5726 5729 5731 5732 5734 5736 5738 5739 5741 5741 5742 5742 5743 5743 5743 5742 5741 5740 5738 5736 5735 5732 5730 5727 5724 5721 5717 5713 5710 5706 5703 5701 5698 5691 5685 5679
5685 5689 5693 5698 5703 5707 5712 5717 5720 5722 5724 5726 5728 5730 5732 5733 5734 5734 5735 5735 5735 5735 5734 5733 5731 5729 5728 5725 5723 5720 5717 5713 5710 5706 5702 5698 5694 5690 5687 5685 5681 5675 5669
5671 5676 5680 5685 5691 5696 5702 5707 5710 5713 5716 5719 5721 5722 5724 5726 5726 5726 5727 5727 5727 5727 5725 5724 5722 5720 5718 5716 5713 5710 5706 5703 5699 5694 5690 5686 5682 5677 5672 5669 5665 5660 5654
5656 5662 5668 5674 5680 5686 5692 5697 5701 5705 5708 5711 5713 5715 5717 5718 5719 5719 5720 5720 5719 5718 5716 5714 5712 5710 5708 5705 5702 5699 5695 5691 5687 5683 5679 5674 5669 5663 5658 5652 5647 5642 5636
5641 5648 5656 5662 5669 5676 5682 5687 5691 5696 5700 5703 5706 5708 5709 5710 5711 5712 5712 5712 5711 5709 5707 5705 5703 5701 5698 5695 5692 5688 5684 5680 5675 5671 5666 5660 5654 5648 5642 5636 5629 5624 5619
5627 5635 5643 5651 5658 5666 5672 5678 5682 5687 5691 5695 5698 5700 5701 5703 5704 5704 5704 5703 5702 5700 5698 5696 5694 5691 5688 5685 5682 5677 5673 5668 5663 5658 5652 5646 5640 5633 5626 5619 5611 5604 5598
5613 5622 5631 5640 5648 5656 5663 5668 5673 5677 5682 5686 5690 5692 5694 5695 5696 5696 5696 5695 5693 5692 5690 5687 5684 5682 5679 5675 5671 5666 5662 5657 5651 5645 5638 5631 5624 5617 5609 5602 5593 5584 5576
5600 5610 5620 5629 5637 5646 5654 5659 5664 5669 5673 5678 5682 5685 5687 5688 5688 5688 5687 5686 5685 5684 5681 5678 5675 5672 5669 5665 5660 5656 5650 5645 5638 5631 5624 5616 5608 5600 5592 5584 5575 5565 5556
5588 5599 5609 5619 5629 5638 5645 5651 5656 5661 5666 5670 5674 5677 5679 5680 5680 5679 5679 5678 5677 5675 5672 5669 5666 5662 5658 5654 5649 5644 5639 5632 5624 5616 5609 5601 5592 5583 5574 5565 5555 5546 5535
5578 5589 5600 5611 5621 5630 5637 5644 5649 5654 5659 5663 5668 5670 5672 5672 5672 5672 5671 5670 5668 5665 5663 5659 5656 5652 5648 5643 5638 5632 5626 5618 5610 5601 5593 5585 5575 5565 5556 5546 5536 5526 5515
5570 5581 5593 5604 5614 5622 5630 5637 5642 5647 5652 5657 5661 5664 5665 5665 5665 5664 5663 5661 5659 5656 5653 5650 5646 5642 5637 5632 5626 5620 5612 5604 5595 5586 5577 5568 5558 5548 5538 5528 5517 5505 5492
5564 5576 5588 5599 5608 5617 5624 5631 5637 5642 5647 5652 5655 5657 5658 5659 5658 5657 5655 5653 5650 5647 5644 5640 5636 5631 5626 5620 5613 5606 5598 5589 5580 5571 5561 5552 5542 5531 5520 5509 5496 5481 5466
5562 5574 5585 5596 5604 5613 5620 5627 5633 5639 5643 5647 5649 5651 5652 5651 5650 5649 5647 5644 5641 5638 5634 5630 5626 5620 5614 5607 5600 5592 5584 5575 5565 5556 5546 5536 5526 5515 5503 5489 5473 5456 5439
5564 5575 5585 5594 5602 5610 5617 5624 5629 5634 5638 5641 5643 5644 5644 5643 5642 5640 5638 5635 5632 5629 5625 5620 5615 5609 5602 5595 5587 5578 5569 5560 5550 5540 5530 5520 5509 5496 5482 5468 5451 5433 5412
5571 5579 5587 5595 5603 5609 5616 5621 5626 5630 5633 5635 5636 5637 5636 5635 5634 5632 5629 5627 5623 5620 5615 5609 5603 5597 5589 5582 5574 5565 5556 5546 5536 5525 5514 5502 5489 5474 5460 5445 5429 5409 5391
5577 5583 5590 5597 5603 5609 5614 5619 5622 5625 5627 5628 5629 5629 5629 5627 5626 5624 5622 5618 5614 5610 5604 5598 5592 5585 5577 5569 5561 5552 5543 5533 5522 5510 5498 5484 5470 5454 5438 5422 5406 5390 5374
5582 5587 5593 5598 5603 5607 5611 5614 5617 5619 5621 5622 5623 5622 5622 5621 5619 5616 5613 5609 5604 5599 5593 5587 5580 5573 5565 5557 5548 5539 5530 5520 5509 5495 5480 5465 5448 5431 5413 5397 5384 5373 5363
5585 5589 5593 5597 5601 5604 5608 5611 5613 5615 5616 5617 5617 5616 5615 5614 5611 5608 5604 5599 5594 5589 5583 5576 5569 5562 5554 5545 5535 5525 5514 5502 5490 5475 5460 5444 5426 5409 5393 5379 5369 5360 5353
5588 5591 5594 5597 5600 5603 5606 5608 5610 5611 5612 5612 5611 5610 5609 5606 5603 5599 5595 5590 5584 5578 5572 5564 5557 5549 5541 5531 5521 5509 5497 5484 5471 5455 5439 5422 5406 5391 5378 5368 5359 5352 5344
5590 5593 5595 5597 5600 5602 5604 5605 5606 5607 5607 5606 5605 5604 5601 5598 5594 5590 5585 5580 5574 5568 5561 5554 5546 5537 5528 5517 5506 5494 5481 5466 5451 5435 5418 5402 5388 5377 5367 5359 5352 5345 5337
5592 5594 5595 5597 5599 5601 5602 5602 5602 5602 5602 5601 5599 5597 5594 5590 5586 5581 5575 5570 5564 5557 5550 5543 5534 5525 5515 5504 5492 5479 5465 5450 5434 5417 5401 5387 5376 5367 5360 5352 5345 5338 5331
5591 5593 5595 5596 5597 5598 5598 5599 5599 5598 5597 5595 5592 5589 5585 5581 5576 5571 5566 5560 5553 5546 5539 5531 5522 5512 5502 5489 5476 5461 5447 5431 5416 5400 5388 5377 5368 5360 5352 5345 5338 5332 5325
5591 5592 5593 5594 5595 5595 5595 5595 5594 5593 5591 5588 5585 5581 5577 5572 5567 5562 5556 5549 5543 5535 5527 5518 5508 5497 5485 5472 5458 5442 5426 5411 5398 5386 5377 5369 5362 5354 5347 5340 5334 5327 5320